Location: Waltman Observatory
(32.5145°N, 90.4450°W)
Time: 16:18:48
(UTC-05:00)

Amateur Radio Satellites - All Passes

Search period start: 01 April 2015 15:48
Search period end: 02 April 2015 15:48
Location: Waltman Observatory, 32.5145°N, 90.4450°W

Satellite Date Start Highest point End Downlink Frequencies (MHz)
Time Altitude Azimuth
PCSat 01 Apr 15:51:35 15:54:32 14° 311° (NW) 15:57:14 145.827
SWISSCUBE 01 Apr 16:09:37 16:10:28 10° 294° (WNW) 16:11:00 437.505
BEESAT 01 Apr 16:11:37 16:12:49 11° 294° (WNW) 16:13:42 436.000
AIST 1 01 Apr 16:19:01 16:22:28 23° 269° (W) 16:25:47
HORYU 2 01 Apr 16:28:46 16:32:52 36° 262° (W) 16:36:57 437.375
SRMSAT 01 Apr 16:32:55 16:37:37 24° 181° (S) 16:42:17 437.500
JAS-2 01 Apr 16:38:07 16:44:59 89° 256° (WSW) 16:52:39 435.910
RS-15 01 Apr 16:55:37 17:01:35 18° 103° (ESE) 17:08:24 29.354- 29.394
KKS-1 01 Apr 16:58:57 17:01:38 15° 291° (WNW) 17:04:09 437.445
JUGNU 01 Apr 17:16:51 17:20:19 16° 194° (SSW) 17:23:42 437.505
MOZHAYETS 4 01 Apr 17:20:55 17:25:21 45° 98° (E) 17:29:46
STARS 01 Apr 17:23:09 17:25:17 13° 291° (WNW) 17:27:12 437.465
AO-7 01 Apr 17:26:03 17:33:32 35° 262° (W) 17:40:51 29.400- 29.500
SO-50 01 Apr 17:51:04 17:55:27 51° 115° (ESE) 18:00:03 436.795
GONETS M04 01 Apr 17:59:06 18:03:37 16° 83° (E) 18:08:47
BEESAT 3 01 Apr 17:59:36 18:01:37 14° 49° (NE) 18:03:47 437.485
AUBIESAT-1 01 Apr 18:17:49 18:22:26 47° 103° (ESE) 18:26:50 437.475
CUTE-I 01 Apr 18:18:23 18:23:35 54° 74° (ENE) 18:28:49 437.470
Cubesat XI-IV 01 Apr 18:19:38 18:24:51 57° 74° (ENE) 18:30:08 437.490
SRMSAT 01 Apr 18:22:14 18:26:12 18° 191° (S) 18:30:08 437.500
JAS-2 01 Apr 18:28:20 18:31:18 12° 276° (W) 18:33:44 435.910
PRISM 01 Apr 18:37:48 18:39:40 13° 92° (E) 18:41:46 437.425
M-CUBED/EXP-1 PRIME 01 Apr 18:45:15 18:50:05 74° 288° (WNW) 18:54:41 437.505
AIST 2 01 Apr 18:59:00 19:01:46 17° 51° (NE) 19:04:37 435.215
MOZHAYETS 4 01 Apr 18:59:38 19:02:14 14° 291° (WNW) 19:04:36
RS-15 01 Apr 19:01:52 19:12:48 88° 296° (WNW) 19:23:53 29.354- 29.394
BEESAT 2 01 Apr 19:03:11 19:07:14 56° 60° (ENE) 19:11:13 435.950
CUBESAT XI-V 01 Apr 19:17:54 19:22:28 61° 100° (E) 19:27:00 437.345
HO-68 01 Apr 19:23:01 19:26:14 14° 60° (ENE) 19:29:54 435.675
SO-50 01 Apr 19:33:26 19:36:23 16° 312° (NW) 19:39:14 436.795
BEESAT 3 01 Apr 19:36:02 19:39:58 45° 246° (WSW) 19:43:48 437.485
GONETS M04 01 Apr 19:50:54 19:59:36 80° 277° (W) 20:08:23
BRITE-PL 01 Apr 19:53:43 19:57:10 22° 73° (ENE) 20:00:36 437.365/2234.400
AUBIESAT-1 01 Apr 19:53:51 19:56:50 16° 297° (WNW) 19:59:34 437.475
STRAND 1 01 Apr 19:53:59 19:59:05 73° 101° (E) 20:04:10 437.568
CUTE-I 01 Apr 20:00:59 20:04:03 15° 269° (W) 20:06:49 437.470
Cubesat XI-IV 01 Apr 20:02:28 20:05:23 14° 269° (W) 20:07:58 437.490
CANX-2 01 Apr 20:05:57 20:08:21 15° 70° (ENE) 20:10:57 2200.000
PRISM 01 Apr 20:11:31 20:15:21 36° 287° (WNW) 20:19:08 437.425
CUTE 1.7 + AOD 2 01 Apr 20:18:41 20:21:41 20° 71° (ENE) 20:24:49 437.475
GOMX 1 01 Apr 20:21:32 20:25:15 27° 74° (ENE) 20:28:53 467.674
DANDE 01 Apr 20:25:50 20:27:55 17° 97° (E) 20:29:54 436.750
AAUSAT CUBESAT 2 01 Apr 20:29:49 20:32:06 15° 70° (ENE) 20:34:34 437.432
AIST 2 01 Apr 20:36:38 20:40:32 36° 247° (WSW) 20:44:18 435.215
SEEDS 01 Apr 20:41:42 20:45:22 30° 73° (ENE) 20:49:07 437.485
CINEMA 3 01 Apr 20:44:10 20:46:22 15° 70° (ENE) 20:48:45 145.822/145.860
CUSAT 1 01 Apr 20:55:40 20:58:32 77° 278° (W) 21:01:08 437.405
COMPASS 1 01 Apr 20:58:15 21:02:08 39° 74° (ENE) 21:06:05 437.405
ISS 01 Apr 20:58:26 21:01:36 54° 133° (SE) 21:04:48 145.825
CUBESAT XI-V 01 Apr 20:58:27 20:59:28 10° 292° (WNW) 21:00:10 437.345
HO-68 01 Apr 21:05:58 21:13:09 90° 84° (E) 21:20:23 435.675
RS-15 01 Apr 21:18:43 21:27:04 23° 322° (NW) 21:35:09 29.354- 29.394
DELFI C3 01 Apr 21:21:04 21:24:01 20° 72° (ENE) 21:27:05 145.870
Oscar 11 01 Apr 21:21:20 21:25:00 28° 73° (ENE) 21:28:46 145.826/435.025
DOVE 4 01 Apr 21:29:48 21:34:07 68° 259° (W) 21:38:17 437.250
BRITE-PL 01 Apr 21:31:37 21:35:38 27° 263° (W) 21:39:21 437.365/2234.400
STRAND 1 01 Apr 21:36:21 21:37:46 11° 295° (WNW) 21:38:49 437.568
FUNcube-1 01 Apr 21:39:55 21:43:02 22° 72° (ENE) 21:46:16 145.935
CANX-2 01 Apr 21:40:10 21:44:02 34° 263° (W) 21:47:55 2200.000
UWE-3 01 Apr 21:53:17 21:57:10 41° 74° (ENE) 22:01:06 435.000/436.395/437.385
ZACube-1 01 Apr 21:53:39 21:57:20 32° 73° (ENE) 22:01:05 437.345
CUTE 1.7 + AOD 2 01 Apr 21:53:51 21:57:28 26° 264° (W) 22:01:02 437.475
GONETS M04 01 Apr 21:54:42 21:58:09 12° 298° (WNW) 22:00:49
GOMX 1 01 Apr 22:00:07 22:03:25 19° 265° (W) 22:06:29 467.674
AAUSAT CUBESAT 2 01 Apr 22:03:39 22:07:29 34° 263° (W) 22:11:18 437.432
VELOX 1 01 Apr 22:04:57 22:07:13 14° 69° (ENE) 22:09:42 145.980
CUBEBUG 2 01 Apr 22:05:57 22:10:06 78° 78° (ENE) 22:14:15 437.445
AISAT 01 Apr 22:10:41 22:13:31 17° 70° (ENE) 22:16:31 437.250
HUMSAT D 01 Apr 22:14:59 22:18:25 27° 73° (ENE) 22:21:58 437.325/437.525
SEEDS 01 Apr 22:18:29 22:21:16 16° 267° (W) 22:23:54 437.485
50 SAT 01 Apr 22:18:40 22:21:20 18° 71° (ENE) 22:24:08 437.505
CINEMA 3 01 Apr 22:19:33 22:23:22 33° 262° (W) 22:27:08 145.822/145.860
UNISAT 6 01 Apr 22:25:29 22:26:53 11° 91° (E) 22:28:36 437.425
UKube-1 01 Apr 22:28:29 22:32:47 66° 76° (ENE) 22:37:05 .
TIGRISAT 01 Apr 22:33:06 22:35:25 14° 92° (E) 22:38:01 435.000
COMPASS 1 01 Apr 22:36:05 22:38:04 13° 269° (W) 22:39:48 437.405
ISS 01 Apr 22:36:26 22:38:15 14° 329° (NNW) 22:40:00 145.825
DX 1 01 Apr 22:43:44 22:48:05 75° 258° (WSW) 22:52:27 434.975-435.025
ESTCUBE 1 01 Apr 22:52:02 22:55:41 25° 72° (ENE) 22:59:28 437.505/2401.250
DELFI C3 01 Apr 22:55:45 22:59:05 23° 265° (W) 23:02:21 145.870
Oscar 11 01 Apr 22:58:08 23:01:14 19° 266° (W) 23:04:13 145.826/435.025
PCSat 01 Apr 22:58:24 23:02:33 23° 54° (NE) 23:06:50 145.827
HO-68 01 Apr 22:59:05 23:01:52 12° 271° (W) 23:04:02 435.675
POPSAT HIP 1 01 Apr 23:01:57 23:03:54 13° 92° (E) 23:06:06 437.405
ANTELSAT 01 Apr 23:03:53 23:08:04 34° 97° (E) 23:12:21 437.575/2403.000
NANOSAT C BR1 01 Apr 23:10:17 23:13:00 17° 94° (E) 23:15:52 145.865
FUNcube-1 01 Apr 23:16:01 23:19:19 22° 265° (W) 23:22:31 145.935
POLYITAN 1 01 Apr 23:17:34 23:20:50 22° 95° (E) 23:24:12 437.675
SPROUT 01 Apr 23:25:14 23:26:33 11° 69° (ENE) 23:28:06 437.525
CUBEBUG 1 01 Apr 23:27:52 23:32:12 58° 75° (ENE) 23:36:31 437.445
ZACube-1 01 Apr 23:31:27 23:33:52 15° 268° (W) 23:36:05 437.345
UWE-3 01 Apr 23:32:33 23:34:00 11° 269° (W) 23:35:11 435.000/436.395/437.385
VELOX 1 01 Apr 23:39:16 23:43:30 41° 261° (W) 23:47:41 145.980
AISAT 01 Apr 23:45:52 23:49:55 33° 262° (W) 23:53:55 437.250
DUCHIFAT 1 01 Apr 23:51:20 23:55:28 56° 100° (E) 23:59:39 145.980
HUMSAT D 01 Apr 23:51:28 23:54:16 17° 267° (W) 23:56:54 437.325/437.525
QB50P1 01 Apr 23:51:44 23:55:55 58° 100° (E) 00:00:06 145.935-145.965
50 SAT 01 Apr 23:52:55 23:56:07 23° 264° (W) 23:59:16 437.505
YUBILEINY 01 Apr 23:53:37 00:00:20 25° 70° (ENE) 00:07:22 435.215
UNISAT 6 01 Apr 23:59:29 00:04:01 54° 284° (WNW) 00:08:35 437.425
QB50P2 02 Apr 00:07:54 00:12:10 85° 281° (WNW) 00:16:25 145.880/145.840
TIGRISAT 02 Apr 00:08:00 00:12:25 44° 285° (WNW) 00:16:51 435.000
BUGSAT 1 02 Apr 00:14:31 00:18:33 78° 101° (ESE) 00:22:36 437.445
ESTCUBE 1 02 Apr 00:28:48 00:32:31 24° 265° (W) 00:36:08 437.505/2401.250
TISAT 1 02 Apr 00:33:22 00:37:33 67° 76° (ENE) 00:41:44 437.305
POPSAT HIP 1 02 Apr 00:36:03 00:40:00 38° 286° (WNW) 00:43:55 437.405
PCSat 02 Apr 00:41:05 00:46:10 41° 250° (WSW) 00:51:10 145.827
ANTELSAT 02 Apr 00:41:17 00:44:39 19° 290° (WNW) 00:47:54 437.575/2403.000
NANOSAT C BR1 02 Apr 00:45:12 00:48:56 30° 287° (WNW) 00:52:35 145.865
ITUPSAT 1 02 Apr 00:46:57 00:49:09 14° 68° (ENE) 00:51:37 437.325
POLYITAN 1 02 Apr 00:53:15 00:56:42 24° 288° (WNW) 01:00:06 437.675
SPROUT 02 Apr 00:58:07 01:02:17 48° 261° (W) 01:06:25 437.525
SWISSCUBE 02 Apr 01:30:25 01:34:59 46° 74° (ENE) 01:39:35 437.505
BEESAT 02 Apr 01:32:43 01:37:14 44° 74° (ENE) 01:41:48 436.000
YUBILEINY 02 Apr 01:49:10 01:57:46 59° 268° (W) 02:06:14 435.215
RS-15 02 Apr 01:57:41 02:05:06 20° 34° (NNE) 02:13:15 29.354- 29.394
ITAMSAT 1 02 Apr 02:11:48 02:14:08 13° 91° (E) 02:16:47 435.822/435.867
KKS-1 02 Apr 02:15:41 02:18:55 21° 71° (ENE) 02:22:17 437.445
ITUPSAT 1 02 Apr 02:21:57 02:26:39 52° 260° (W) 02:31:22 437.325
SO-50 02 Apr 02:27:54 02:30:59 17° 48° (NE) 02:34:12 436.795
Oscar 19 02 Apr 02:34:31 02:39:44 90° 138° (SE) 02:44:56 437.125/150
STARS 02 Apr 02:38:10 02:41:33 23° 71° (ENE) 02:45:02 437.465
VERMONT LUNAR 02 Apr 03:03:40 03:06:48 38° 147° (SSE) 03:09:57 437.305
AIST 1 02 Apr 03:07:10 03:09:42 16° 89° (E) 03:12:26
SWISSCUBE 02 Apr 03:10:24 03:13:07 14° 268° (W) 03:15:35 437.505
BEESAT 02 Apr 03:12:32 03:15:21 15° 268° (W) 03:17:55 436.000
Gurwin Techsat 1B 02 Apr 03:21:35 03:26:51 62° 101° (E) 03:32:07 435.225
ISS 02 Apr 03:31:58 03:32:00 10° 28° (NNE) 03:32:09 145.825
O/OREOS (USA 219) 02 Apr 03:38:02 03:42:38 84° 289° (WNW) 03:47:15 437.305
AO-7 02 Apr 03:41:29 03:46:13 17° 92° (E) 03:51:30 29.400- 29.500
ITAMSAT 1 02 Apr 03:49:00 03:54:03 55° 286° (WNW) 03:59:04 435.822/435.867
KKS-1 02 Apr 03:51:36 03:55:25 27° 263° (W) 03:59:11 437.445
JAS-2 02 Apr 03:55:26 04:00:04 18° 88° (E) 04:04:47 435.910
SO-50 02 Apr 04:07:04 04:11:55 55° 245° (WSW) 04:16:41 436.795
RS-15 02 Apr 04:08:36 04:20:11 71° 59° (ENE) 04:32:16 29.354- 29.394
STARS 02 Apr 04:14:20 04:17:56 24° 264° (W) 04:21:27 437.465
PHONESAT 2.4 02 Apr 04:17:33 04:21:02 63° 151° (SSE) 04:24:32 2401.200-2431.200
MOZHAYETS 4 02 Apr 04:18:49 04:22:33 25° 72° (ENE) 04:26:24
HORYU 2 02 Apr 04:24:13 04:28:41 61° 101° (E) 04:33:08 437.375
VERMONT LUNAR 02 Apr 04:41:22 04:44:30 36° 342° (NNW) 04:47:38 437.305
AIST 1 02 Apr 04:43:09 04:47:08 32° 282° (WNW) 04:51:03
AUBIESAT-1 02 Apr 05:01:59 05:05:26 28° 67° (ENE) 05:09:13 437.475
Gurwin Techsat 1B 02 Apr 05:03:41 05:06:23 14° 294° (WNW) 05:08:45 435.225
ISS 02 Apr 05:05:38 05:08:52 88° 56° (NE) 05:12:04 145.825
M-CUBED/EXP-1 PRIME 02 Apr 05:29:24 05:33:23 69° 72° (ENE) 05:37:46 437.505
AO-7 02 Apr 05:31:36 05:39:54 79° 288° (WNW) 05:48:12 29.400- 29.500
JAS-2 02 Apr 05:38:24 05:45:54 67° 286° (WNW) 05:52:36 435.910
MOZHAYETS 4 02 Apr 05:55:55 05:59:44 24° 265° (W) 06:03:28
PHONESAT 2.4 02 Apr 05:56:21 05:59:32 30° 345° (NNW) 06:02:43 2401.200-2431.200
HORYU 2 02 Apr 06:03:58 06:04:53 10° 293° (WNW) 06:05:30 437.375
GONETS M04 02 Apr 06:07:10 06:15:21 42° 76° (ENE) 06:23:38
CUBESAT XI-V 02 Apr 06:16:51 06:21:06 35° 73° (ENE) 06:25:24 437.345
VERMONT LUNAR 02 Apr 06:20:10 06:22:43 20° 358° (N) 06:25:16 437.305
RS-15 02 Apr 06:22:30 06:31:59 28° 254° (WSW) 06:41:09 29.354- 29.394
AUBIESAT-1 02 Apr 06:37:18 06:40:19 20° 263° (W) 06:43:25 437.475
CUTE-I 02 Apr 06:40:35 06:45:13 31° 97° (E) 06:49:56 437.470
Cubesat XI-IV 02 Apr 06:41:58 06:46:42 33° 97° (E) 06:51:28 437.490
PRISM 02 Apr 06:56:39 07:00:52 84° 77° (ENE) 07:05:06 437.425
STRAND 1 02 Apr 07:05:11 07:10:17 65° 75° (ENE) 07:15:23 437.568
DANDE 02 Apr 07:07:14 07:10:44 20° 78° (ENE) 07:15:11 436.750
AO-7 02 Apr 07:27:26 07:31:38 14° 304° (WNW) 07:35:18 29.400- 29.500
JAS-2 02 Apr 07:28:36 07:29:36 10° 302° (WNW) 07:29:59 435.910
CUSAT 1 02 Apr 07:33:40 07:38:36 51° 81° (E) 07:45:07 437.405
PHONESAT 2.4 02 Apr 07:35:41 07:38:29 21° 2° (N) 07:41:17 2401.200-2431.200
CUBESAT XI-V 02 Apr 07:55:24 07:58:40 18° 267° (W) 08:01:46 437.345
VERMONT LUNAR 02 Apr 07:58:01 08:00:59 29° 15° (NNE) 08:03:59 437.305
GONETS M04 02 Apr 08:04:14 08:12:04 36° 272° (W) 08:19:43
CUTE-I 02 Apr 08:20:49 08:25:12 26° 290° (WNW) 08:29:27 437.470
Cubesat XI-IV 02 Apr 08:22:21 08:26:40 25° 290° (WNW) 08:30:51 437.490
GOMX 1 02 Apr 08:29:02 08:30:18 11° 92° (E) 08:31:56 467.674
HO-68 02 Apr 08:40:08 08:45:17 22° 93° (E) 08:50:43 435.675
STRAND 1 02 Apr 08:48:20 08:50:00 11° 270° (W) 08:51:16 437.568
DANDE 02 Apr 08:49:19 08:53:55 39° 263° (W) 08:59:51 436.750
BEESAT 2 02 Apr 08:53:14 08:56:53 32° 113° (ESE) 09:00:37 435.950
PHONESAT 2.4 02 Apr 09:14:01 09:17:22 40° 19° (NNE) 09:20:42 2401.200-2431.200
CUSAT 1 02 Apr 09:17:47 09:21:27 17° 265° (W) 09:25:21 437.405
BEESAT 3 02 Apr 09:24:42 09:28:45 82° 297° (WNW) 09:32:54 437.485
CANX-2 02 Apr 09:29:42 09:33:56 55° 100° (E) 09:38:10 2200.000
DOVE 4 02 Apr 09:32:44 09:37:00 43° 99° (E) 09:41:34 437.250
VERMONT LUNAR 02 Apr 09:35:30 09:38:49 60° 209° (SSW) 09:42:06 437.305
BRITE-PL 02 Apr 09:39:32 09:43:48 61° 283° (WNW) 09:48:21 437.365/2234.400
CUTE 1.7 + AOD 2 02 Apr 09:42:55 09:47:14 73° 101° (ESE) 09:51:31 437.475
UWE-3 02 Apr 09:49:03 09:51:06 13° 92° (E) 09:53:25 435.000/436.395/437.385
AAUSAT CUBESAT 2 02 Apr 09:51:01 09:55:08 50° 99° (E) 09:59:14 437.432
ANTELSAT 02 Apr 09:59:58 10:02:35 17° 70° (ENE) 10:05:23 437.575/2403.000
CUBEBUG 2 02 Apr 10:01:47 10:05:25 24° 95° (E) 10:09:13 437.445
GOMX 1 02 Apr 10:04:26 10:08:43 50° 284° (WNW) 10:13:15 467.674
SEEDS 02 Apr 10:05:46 10:10:03 70° 283° (WNW) 10:14:17 437.485
CINEMA 3 02 Apr 10:17:46 10:22:20 74° 102° (ESE) 10:27:05 145.822/145.860
COMPASS 1 02 Apr 10:21:41 10:25:52 55° 284° (WNW) 10:29:59 437.405
UKube-1 02 Apr 10:22:03 10:24:36 16° 93° (E) 10:27:20 .
HO-68 02 Apr 10:26:24 10:33:26 57° 289° (WNW) 10:40:24 435.675
AIST 2 02 Apr 10:29:50 10:34:00 57° 300° (WNW) 10:38:13 435.215
BEESAT 2 02 Apr 10:32:11 10:35:08 18° 308° (NW) 10:37:58 435.950
DX 1 02 Apr 10:37:13 10:40:50 26° 96° (E) 10:44:29 434.975-435.025
DELFI C3 02 Apr 10:39:09 10:43:14 64° 100° (E) 10:47:16 145.870
DUCHIFAT 1 02 Apr 10:40:05 10:43:21 23° 72° (ENE) 10:46:42 145.980
QB50P1 02 Apr 10:40:44 10:44:05 24° 72° (ENE) 10:47:30 145.935-145.965
Oscar 11 02 Apr 10:48:33 10:52:55 73° 283° (WNW) 10:57:15 145.826/435.025
PHONESAT 2.4 02 Apr 10:52:23 10:55:41 37° 213° (SSW) 10:58:59 2401.200-2431.200
UNISAT 6 02 Apr 10:54:00 10:58:15 76° 77° (ENE) 11:02:35 437.425
QB50P2 02 Apr 10:56:32 11:00:25 38° 74° (ENE) 11:04:22 145.880/145.840
BUGSAT 1 02 Apr 11:00:33 11:04:05 28° 73° (ENE) 11:07:39 437.445
TIGRISAT 02 Apr 11:02:10 11:06:25 87° 254° (WSW) 11:10:45 435.000
FUNcube-1 02 Apr 11:07:33 11:12:03 89° 266° (W) 11:16:35 145.935
CANX-2 02 Apr 11:08:41 11:09:28 10° 292° (WNW) 11:09:56 2200.000
DOVE 4 02 Apr 11:12:03 11:14:34 14° 289° (WNW) 11:16:55 437.250
ZACube-1 02 Apr 11:22:14 11:26:38 58° 284° (WNW) 11:31:05 437.345
CUBEBUG 1 02 Apr 11:22:51 11:25:17 15° 93° (E) 11:27:54 437.445
UWE-3 02 Apr 11:23:34 11:27:52 45° 285° (WNW) 11:32:14 435.000/436.395/437.385
POPSAT HIP 1 02 Apr 11:23:57 11:28:09 85° 78° (ENE) 11:32:23 437.405
AAUSAT CUBESAT 2 02 Apr 11:29:11 11:30:23 11° 291° (WNW) 11:31:19 437.432
NANOSAT C BR1 02 Apr 11:32:41 11:36:53 74° 260° (W) 11:41:05 145.865
VELOX 1 02 Apr 11:34:15 11:38:32 51° 100° (E) 11:42:50 145.980
50 SAT 02 Apr 11:34:16 11:38:16 56° 100° (E) 11:42:15 437.505
ANTELSAT 02 Apr 11:35:19 11:39:10 32° 263° (W) 11:43:02 437.575/2403.000
JUGNU 02 Apr 11:36:40 11:39:59 15° 166° (SSE) 11:43:23 437.505
CUBEBUG 2 02 Apr 11:38:18 11:42:04 26° 287° (WNW) 11:45:49 437.445
HUMSAT D 02 Apr 11:38:26 11:42:44 78° 283° (WNW) 11:47:03 437.325/437.525
AISAT 02 Apr 11:40:47 11:45:11 65° 101° (E) 11:49:34 437.250
POLYITAN 1 02 Apr 11:41:03 11:45:12 56° 260° (W) 11:49:21 437.675
UKube-1 02 Apr 11:56:57 12:00:53 33° 287° (WNW) 12:04:44 .
DX 1 02 Apr 12:13:39 12:16:57 21° 289° (WNW) 12:20:09 434.975-435.025
DUCHIFAT 1 02 Apr 12:15:48 12:19:08 22° 265° (W) 12:22:21 145.980
QB50P1 02 Apr 12:16:39 12:19:55 21° 265° (W) 12:23:05 145.935-145.965
TISAT 1 02 Apr 12:24:02 12:26:23 15° 93° (E) 12:28:56 437.305
ESTCUBE 1 02 Apr 12:25:10 12:29:41 79° 283° (WNW) 12:34:09 437.505/2401.250
QB50P2 02 Apr 12:34:27 12:36:33 13° 268° (W) 12:38:24 145.880/145.840
BUGSAT 1 02 Apr 12:36:49 12:39:38 17° 266° (W) 12:42:16 437.445
SRMSAT 02 Apr 12:45:04 12:47:33 13° 164° (SSE) 12:50:08 437.500
YUBILEINY 02 Apr 12:48:28 12:55:56 34° 87° (E) 13:03:39 435.215
SPROUT 02 Apr 12:49:24 12:53:25 39° 98° (E) 12:57:28 437.525
CUBEBUG 1 02 Apr 12:57:52 13:01:48 34° 287° (WNW) 13:05:42 437.445
VELOX 1 02 Apr 13:13:07 13:14:43 12° 292° (WNW) 13:16:04 145.980
JUGNU 02 Apr 13:23:50 13:28:25 23° 175° (S) 13:33:01 437.505
ITAMSAT 1 02 Apr 13:25:46 13:28:19 14° 67° (ENE) 13:31:09 435.822/435.867
PCSat 02 Apr 13:34:39 13:39:49 50° 111° (ESE) 13:45:04 145.827
SWISSCUBE 02 Apr 13:36:35 13:39:35 17° 93° (E) 13:42:47 437.505
BEESAT 02 Apr 13:38:50 13:41:44 17° 93° (E) 13:44:50 436.000
Oscar 19 02 Apr 13:46:45 13:51:51 81° 76° (ENE) 13:57:00 437.125/150
O/OREOS (USA 219) 02 Apr 13:52:44 13:57:17 86° 73° (ENE) 14:01:46 437.305
TISAT 1 02 Apr 13:58:31 14:02:19 33° 287° (WNW) 14:06:04 437.305
SPROUT 02 Apr 14:26:55 14:29:13 14° 290° (WNW) 14:31:19 437.525
ITUPSAT 1 02 Apr 14:27:10 14:31:53 58° 100° (E) 14:36:35 437.325
SRMSAT 02 Apr 14:31:42 14:36:08 22° 173° (S) 14:40:36 437.500
AO-7 02 Apr 14:36:41 14:41:27 18° 58° (ENE) 14:46:39 29.400- 29.500
Gurwin Techsat 1B 02 Apr 14:38:03 14:43:16 63° 75° (ENE) 14:48:32 435.225
YUBILEINY 02 Apr 14:44:15 14:52:34 44° 283° (WNW) 15:00:51 435.215
AIST 1 02 Apr 14:54:54 14:58:50 36° 79° (E) 15:02:47
ITAMSAT 1 02 Apr 15:02:16 15:07:24 58° 259° (W) 15:12:33 435.822/435.867
JUGNU 02 Apr 15:12:19 15:16:53 23° 186° (S) 15:21:26 437.505
SWISSCUBE 02 Apr 15:13:12 15:17:38 38° 287° (WNW) 15:22:00 437.505
BEESAT 02 Apr 15:15:19 15:19:47 39° 287° (WNW) 15:24:11 436.000
HORYU 2 02 Apr 15:18:25 15:22:18 31° 72° (ENE) 15:26:15 437.375
PCSat 02 Apr 15:19:38 15:23:34 19° 308° (NW) 15:27:21 145.827
